STARLINK-5705 (55472 NORAD) Tracking and Keplerian Element Data

This shows tracking and keplerian element data for the satellite.

Feedback or suggestion? Click here.




ElementValue
Catalog55472
NameSTARLINK-5705
Epoch Orbit831
Epoch Day85.15706091
Epoch Year2023
RAAN76.1477
Inclination43.0025
Eccentricity0.0001462
Argument of Perigee258.5173
Mean Anonmoly101.5531
Mean Motion15.71348865
Decay Rate-9.35E-06
L11 55472U 23015Z 23085.15706091 -.00000935 00000+0 -36868-5 0 9995
L22 55472 43.0025 76.1477 0001462 258.5173 101.5531 15.71348865 8311



Live tracking and technical data element details for STARLINK-5705 (NORAD 55472). STARLINK-5705 can be tracked NOW for your location showing map with azimuth and elevation plus other details from your city location.







IsCatalogInMostPopularTable: catalog: 55472, numindb: -1

Insert: records affected: 1


GetName: 55472 STARLINK-5705

Hit Count: inserted at: Tue, 28 Mar 2023 02:18:07 GMT